Location: Casone le Fosse
(44.6547°N, 12.1103°E)
Time: 11:17:01
(UTC+00:00)

Geosat - Pass Details

Date: 29 October 2020
Orbit: 763 x 766 km, 108.0° (Epoch: 27 November)

Event Time Altitude Azimuth Distance (km) Brightness Sun altitude
Exits shadow 17:52:54 35° 60° (ENE) 1,219 4.6 -19.8°
Maximum altitude 17:54:39 51° 113° (ESE) 957 4.1 -20.1°
Drops below altitude 10° 17:59:31 10° 189° (S) 2,297 6.6 -21.0°
Sets 18:01:51 0° 195° (SSW) 3,219 7.4 -21.4°
